Lid_Strength_Index
1 -0 -1 -1 -1 -1 -1 -1 -1 -1 -1 -1 -2 -2 -1 -2 -2 -1 -1 -1 -1 -1 -1 -1 -1 -1 -1 -1 -1 -1 -1 -1 -1 -1 -1 -1 -1 -1 -1 -1 -1 -1 -1
0 -0 -1 -1 -1 -1 -1 -1 -2 -1 -1 -1 -2 -2 -2 -2 -2 -2 -2 -2 -1 -2 -1 -1 -1 -1 -1 -1 -1 -1 -1 -1 -1 -1 -1 -1 -1 -1 -1 -1 -1 -1 -1
1 0 -0 -1 -2 -2 -2 -2 -2 -2 -2 -2 -2 -2 -2 -2 -2 -2 -2 -2 -2 -2 -2 -2 -1 -1 -1 -1 -1 -1 -1 -1 -1 -1 -1 -0 -0 -1 -1 -1 -1 -1 -1
1 1 1 -1 -2 -2 -2 -2 -2 -2 -2 -2 -2 -2 -2 -2 -2 -2 -2 -2 -2 -2 -2 -2 -2 -2 -2 -1 -1 -1 -1 -1 0 0 2 1 -1 -1 -1 -1 -1 -1 -1
2 2 1 -1 -2 -2 -2 -2 -2 -2 -2 -2 -2 -2 -2 -2 -2 -2 -2 -2 -2 -2 -2 -1 -1 -1 -1 -1 -1 -1 -2 -2 -1 3 5 4 2 -1 -1 -1 -1 -1 -1
4 3 0 -2 -2 -2 -2 -2 -2 -2 -2 -2 -2 -2 -2 -2 -2 -2 -2 -2 -2 -1 -1 -1 -1 -1 -1 -2 -2 -2 -2 -2 -1 3 3 1 0 -1 -1 -1 -1 -1 -1
3 3 1 -2 -2 -2 -2 -2 -2 -1 -1 -1 -1 -0 -1 -1 -1 -1 -0 -0 -0 -1 -1 -1 -1 -1 -1 -0 -1 -1 -1 -1 1 3 1 1 0 -1 -1 -1 -1 -1 -1
3 3 1 -2 -2 -2 -2 -1 -1 -1 0 0 0 -0 -0 -0 0 1 1 0 0 0 0 0 0 0 1 1 0 0 -0 -1 0 3 1 1 -1 -1 -1 -1 -1 -1 -1
3 2 1 1 -1 -2 -1 -1 -0 0 1 1 1 1 1 1 1 1 1 1 1 1 0 0 1 1 1 1 -0 -0 -0 -1 4 2 -0 0 -2 -1 -1 -1 -1 -1 -1
4 3 2 2 2 2 2 -0 0 0 1 1 1 1 2 2 1 1 2 1 1 1 1 1 1 1 2 2 1 -0 -1 2 5 1 1 1 -1 -1 -1 -1 -1 -1 -1
6 5 5 3 3 4 3 1 1 1 1 1 3 2 4 5 5 4 2 2 1 2 3 3 3 3 4 5 4 3 4 5 5 2 1 -1 -1 -1 -1 -1 -1 -1 -1
6 6 5 5 5 5 3 3 4 3 5 6 6 6 6 6 5 5 4 4 4 4 5 4 4 5 7 10 10 8 10 7 4 2 1 -1 -1 -1 -1 -1 -1 -1 -1
7 5 5 5 5 5 5 5 6 6 6 6 7 6 6 6 7 8 9 10 10 8 11 10 11 11 11 11 11 11 10 7 4 2 -0 -1 -1 -1 -1 -1 -1 -1 -1
7 5 5 5 5 5 5 6 6 6 6 7 7 7 7 8 9 9 10 11 11 11 12 12 12 11 11 11 11 10 10 8 4 3 1 -1 -1 -1 -1 -1 -1 -1 -1
7 6 5 5 5 5 5 5 6 6 7 7 7 8 8 9 9 10 11 11 12 11 12 11 11 11 11 10 10 10 10 7 5 3 3 -0 -0 -0 -0 -0 -1 -1 -1
7 6 5 5 5 5 6 5 5 5 6 7 8 8 8 9 10 10 11 11 11 11 11 11 11 11 11 10 10 10 10 7 5 4 4 3 1 1 1 0 0 0 -0
6 6 5 5 5 5 5 6 5 5 5 6 7 8 8 9 10 10 11 11 11 11 10 10 11 10 10 10 10 10 10 8 6 4 4 4 4 2 2 2 2 1 1
6 7 6 4 5 6 6 6 6 5 6 6 7 7 8 8 9 10 11 11 11 11 10 11 11 11 11 11 11 10 10 9 6 5 4 5 6 5 4 4 4 4 3
6 7 7 5 6 6 6 6 7 6 6 6 6 7 7 8 8 9 10 10 11 11 11 11 11 11 11 11 10 10 10 9 7 4 6 5 6 6 7 5 5 5 5
6 7 7 7 6 7 7 7 7 7 7 7 6 6 6 7 8 9 9 9 9 10 10 10 11 11 11 11 10 10 10 9 8 6 6 5 6 7 7 8 8 8 5
7 7 8 7 7 7 7 8 8 8 8 7 7 6 6 6 7 8 8 8 9 10 10 10 10 11 11 11 11 11 10 9 8 6 6 6 6 7 8 9 10 10 10
7 7 7 7 7 7 7 7 7 8 8 7 7 6 6 6 6 7 7 8 8 9 9 9 10 11 11 11 11 12 12 11 10 10 10 7 8 8 8 9 9 9 10
8 7 6 6 6 6 6 6 7 7 7 7 7 7 6 6 5 6 7 7 8 8 9 9 10 10 11 11 10 11 12 13 12 10 10 10 10 10 10 9 9 9 10
8 7 6 6 6 6 6 7 7 8 8 7 7 6 6 6 6 6 6 7 7 8 8 9 8 10 11 11 10 9 10 11 13 13 11 11 10 10 10 10 10 10 10
8 7 7 7 6 6 7 7 8 8 8 7 7 7 7 6 6 6 6 6 7 7 8 8 9 9 10 10 10 10 11 11 11 13 14 13 11 10 10 10 10 10 10
8 8 8 7 8 8 8 8 8 8 8 8 8 8 8 7 7 6 6 7 7 7 8 8 8 9 9 9 9 10 10 11 12 12 14 12 12 11 11 10 11 11 10